N303CO KFXE-KPBI

Flight info

Callsign N303CO
Flight time 0h 14m
Altitude 3500
Route VFR
Aircraft BE58/L-V/N

Departure

Time 2026-04-21 20:44
Airport Fort Lauderdale Executive Airport (KFXE)

Arrival

Time 2026-04-21 20:59
Airport Palm Beach International Airport (KPBI)
Time Latitude Longitude Altitude Speed Heading
2026-04-21 20:42 26.19573 -80.17192 22 ft 0 kts 125°
2026-04-21 20:42 26.19590 -80.17183 23 ft 6 kts 327°
2026-04-21 20:43 26.19638 -80.17195 24 ft 10 kts 343°
2026-04-21 20:43 26.19692 -80.17255 27 ft 12 kts 307°
2026-04-21 20:43 26.19748 -80.17332 25 ft 14 kts 310°
2026-04-21 20:43 26.19806 -80.17388 24 ft 0 kts 47°
2026-04-21 20:44 26.19837 -80.17298 24 ft 30 kts 83°
2026-04-21 20:44 26.19874 -80.16849 37 ft 83 kts 84°
2026-04-21 20:44 26.19940 -80.16199 368 ft 87 kts 82°
2026-04-21 20:44 26.20148 -80.15566 695 ft 89 kts 41°
2026-04-21 20:45 26.20819 -80.15573 962 ft 110 kts 352°
2026-04-21 20:45 26.21549 -80.15863 1297 ft 113 kts 353°
2026-04-21 20:45 26.22044 -80.16055 1518 ft 114 kts 353°
2026-04-21 20:45 26.23045 -80.16445 1966 ft 113 kts 352°
2026-04-21 20:46 26.23750 -80.16886 2313 ft 121 kts 335°
2026-04-21 20:46 26.24486 -80.17220 2671 ft 108 kts 11°
2026-04-21 20:46 26.25212 -80.17151 3025 ft 105 kts 15°
2026-04-21 20:46 26.25942 -80.17186 3379 ft 106 kts
2026-04-21 20:47 26.26712 -80.17217 3512 ft 121 kts
2026-04-21 20:47 26.27626 -80.17265 3524 ft 141 kts
2026-04-21 20:47 26.28649 -80.17325 3526 ft 152 kts
2026-04-21 20:47 26.29713 -80.17311 3526 ft 150 kts 24°
2026-04-21 20:48 26.30619 -80.16778 3517 ft 151 kts 24°
2026-04-21 20:48 26.31704 -80.16724 3513 ft 161 kts
2026-04-21 20:48 26.32829 -80.16834 3509 ft 163 kts
2026-04-21 20:48 26.33967 -80.16930 3511 ft 164 kts
2026-04-21 20:49 26.35107 -80.17027 3510 ft 165 kts
2026-04-21 20:49 26.36235 -80.17125 3510 ft 165 kts
2026-04-21 20:49 26.37384 -80.17224 3511 ft 165 kts
2026-04-21 20:49 26.38530 -80.17323 3506 ft 165 kts
2026-04-21 20:50 26.39670 -80.17423 3507 ft 165 kts
2026-04-21 20:50 26.40821 -80.17522 3502 ft 165 kts
2026-04-21 20:50 26.41970 -80.17622 3502 ft 165 kts
2026-04-21 20:50 26.43113 -80.17719 3506 ft 162 kts
2026-04-21 20:51 26.44206 -80.17817 3491 ft 154 kts
2026-04-21 20:51 26.45257 -80.17910 3487 ft 149 kts
2026-04-21 20:51 26.46281 -80.17997 3488 ft 146 kts
2026-04-21 20:51 26.47286 -80.18085 3495 ft 144 kts
2026-04-21 20:52 26.48285 -80.18170 3487 ft 144 kts
2026-04-21 20:52 26.49276 -80.18255 3495 ft 143 kts
2026-04-21 20:52 26.50265 -80.18340 3491 ft 142 kts
2026-04-21 20:52 26.51236 -80.18426 3490 ft 141 kts
2026-04-21 20:53 26.52210 -80.18510 3490 ft 140 kts
2026-04-21 20:53 26.53181 -80.18593 3489 ft 140 kts
2026-04-21 20:53 26.54151 -80.18676 3496 ft 140 kts
2026-04-21 20:53 26.55122 -80.18760 3487 ft 139 kts
2026-04-21 20:54 26.56085 -80.18845 3490 ft 138 kts
2026-04-21 20:54 26.57044 -80.18928 3491 ft 139 kts
2026-04-21 20:54 26.58021 -80.19009 3337 ft 148 kts
2026-04-21 20:54 26.59062 -80.19097 3098 ft 152 kts
2026-04-21 20:55 26.60127 -80.19190 2857 ft 155 kts
2026-04-21 20:55 26.61211 -80.19285 2617 ft 157 kts
2026-04-21 20:55 26.62306 -80.19381 2373 ft 158 kts
2026-04-21 20:55 26.63400 -80.19476 2138 ft 157 kts
2026-04-21 20:56 26.64490 -80.19570 1892 ft 157 kts
2026-04-21 20:56 26.65569 -80.19566 1648 ft 153 kts 16°
2026-04-21 20:56 26.66555 -80.19191 1408 ft 150 kts 32°
2026-04-21 20:56 26.67392 -80.18496 1169 ft 151 kts 49°
2026-04-21 20:57 26.67982 -80.17561 1018 ft 146 kts 63°
2026-04-21 20:57 26.68278 -80.16566 1002 ft 125 kts 77°
2026-04-21 20:57 26.68324 -80.15667 997 ft 107 kts 89°
2026-04-21 20:57 26.68291 -80.14901 992 ft 91 kts 86°
2026-04-21 20:58 26.68269 -80.14239 984 ft 79 kts 86°
2026-04-21 20:58 26.68249 -80.13617 1003 ft 84 kts 84°
2026-04-21 20:58 26.68268 -80.12876 734 ft 110 kts 81°
2026-04-21 20:58 26.68340 -80.12029 352 ft 106 kts 82°
2026-04-21 20:59 26.68326 -80.11261 129 ft 93 kts 88°
2026-04-21 20:59 26.68295 -80.10610 29 ft 74 kts 85°
2026-04-21 20:59 26.68288 -80.10254 23 ft 0 kts 82°